Time,TemperatureF,DewpointF,PressureIn,WindDirection,WindDirectionDegrees,WindSpeedMPH,WindSpeedGustMPH,Humidity,HourlyPrecipIn,Conditions,Clouds,dailyrainin,SoftwareType,DateUTC
2013-03-20 00:02:00,63.0,56.0,30.05,ENE,78,0.0,-999.0,77,-99.99,,,-99.99,,2013-03-20 10:02:00,
2013-03-20 00:12:00,63.0,56.0,30.05,ENE,78,0.0,-999.0,77,-99.99,,,-99.99,,2013-03-20 10:12:00,
2013-03-20 00:22:00,65.0,56.0,30.05,ENE,78,1.0,-999.0,74,-99.99,,,-99.99,,2013-03-20 10:22:00,
2013-03-20 00:32:00,66.0,56.0,30.05,East,86,1.0,-999.0,71,-99.99,,,-99.99,,2013-03-20 10:32:00,
2013-03-20 00:42:00,66.0,56.0,30.05,East,86,1.0,-999.0,71,-99.99,,,-99.99,,2013-03-20 10:42:00,
2013-03-20 00:52:00,66.0,56.0,30.04,ENE,77,0.0,-999.0,71,-99.99,,,-99.99,,2013-03-20 10:52:00,
2013-03-20 01:02:00,66.0,56.0,30.03,ENE,77,1.0,-999.0,71,-99.99,,,-99.99,,2013-03-20 11:02:00,
2013-03-20 01:11:00,66.0,56.0,30.03,ENE,77,1.0,-999.0,71,-99.99,,,-99.99,,2013-03-20 11:11:00,
2013-03-20 01:21:00,65.0,56.0,30.03,ENE,68,2.0,-999.0,72,-99.99,,,-99.99,,2013-03-20 11:21:00,
2013-03-20 01:32:00,65.0,56.0,30.03,ENE,63,1.0,-999.0,73,-99.99,,,-99.99,,2013-03-20 11:32:00,
2013-03-20 01:42:00,65.0,56.0,30.03,ENE,63,1.0,-999.0,73,-99.99,,,-99.99,,2013-03-20 11:42:00,
2013-03-20 01:51:00,65.0,56.0,30.02,ENE,63,1.0,-999.0,73,-99.99,,,-99.99,,2013-03-20 11:51:00,
2013-03-20 02:02:00,65.0,56.0,30.01,ENE,63,1.0,-999.0,72,-99.99,,,-99.99,,2013-03-20 12:02:00,
2013-03-20 02:11:00,65.0,56.0,30.01,ENE,63,1.0,-999.0,72,-99.99,,,-99.99,,2013-03-20 12:11:00,
2013-03-20 02:21:00,65.0,56.0,30.01,ENE,68,1.0,-999.0,73,-99.99,,,-99.99,,2013-03-20 12:21:00,
2013-03-20 02:32:00,65.0,56.0,30.01,ENE,68,1.0,-999.0,74,-99.99,,,-99.99,,2013-03-20 12:32:00,
2013-03-20 02:42:00,65.0,56.0,30.01,ENE,68,1.0,-999.0,74,-99.99,,,-99.99,,2013-03-20 12:42:00,
2013-03-20 02:51:00,65.0,56.0,30.01,ENE,68,0.0,-999.0,74,-99.99,,,-99.99,,2013-03-20 12:51:00,
2013-03-20 03:02:00,66.0,58.0,30.01,ENE,68,0.0,-999.0,75,-99.99,,,-99.99,,2013-03-20 13:02:00,
2013-03-20 03:12:00,66.0,58.0,30.01,ENE,68,0.0,-999.0,75,-99.99,,,-99.99,,2013-03-20 13:12:00,
2013-03-20 03:21:00,66.0,57.0,30.01,ENE,68,0.0,-999.0,73,-99.99,,,-99.99,,2013-03-20 13:21:00,
2013-03-20 03:32:00,66.0,57.0,30.00,ENE,68,0.0,-999.0,73,-99.99,,,-99.99,,2013-03-20 13:32:00,
2013-03-20 03:42:00,66.0,57.0,30.00,ENE,68,0.0,-999.0,73,-99.99,,,-99.99,,2013-03-20 13:42:00,
2013-03-20 03:52:00,67.0,58.0,30.00,ENE,68,0.0,-999.0,73,-99.99,,,-99.99,,2013-03-20 13:52:00,
2013-03-20 04:01:00,67.0,58.0,30.01,ENE,68,0.0,-999.0,72,-99.99,,,-99.99,,2013-03-20 14:01:00,
2013-03-20 04:11:00,67.0,58.0,30.01,ENE,68,0.0,-999.0,72,-99.99,,,-99.99,,2013-03-20 14:11:00,
2013-03-20 04:21:00,66.0,57.0,30.01,ENE,69,0.0,-999.0,72,-99.99,,,-99.99,,2013-03-20 14:21:00,
2013-03-20 04:32:00,66.0,57.0,30.01,ENE,70,0.0,-999.0,74,-99.99,,,-99.99,,2013-03-20 14:32:00,
2013-03-20 04:42:00,66.0,57.0,30.01,ENE,70,0.0,-999.0,74,-99.99,,,-99.99,,2013-03-20 14:42:00,
2013-03-20 04:51:00,64.0,56.0,30.01,ENE,70,1.0,-999.0,76,-99.99,,,-99.99,,2013-03-20 14:51:00,
2013-03-20 05:02:00,64.0,56.0,30.01,ENE,65,2.0,-999.0,76,-99.99,,,-99.99,,2013-03-20 15:02:00,
2013-03-20 05:12:00,64.0,56.0,30.01,ENE,64,2.0,-999.0,76,-99.99,,,-99.99,,2013-03-20 15:12:00,
2013-03-20 05:21:00,64.0,56.0,30.01,ENE,64,2.0,-999.0,76,-99.99,,,-99.99,,2013-03-20 15:21:00,
2013-03-20 05:32:00,64.0,56.0,30.02,ENE,61,2.0,-999.0,76,-99.99,,,-99.99,,2013-03-20 15:32:00,
2013-03-20 05:42:00,64.0,56.0,30.02,ENE,61,2.0,-999.0,76,-99.99,,,-99.99,,2013-03-20 15:42:00,
2013-03-20 05:52:00,63.0,55.0,30.02,ENE,61,2.0,-999.0,76,-99.99,,,-99.99,,2013-03-20 15:52:00,
2013-03-20 06:02:00,64.0,56.0,30.02,ENE,58,3.0,-999.0,76,-99.99,,,-99.99,,2013-03-20 16:02:00,
2013-03-20 06:12:00,64.0,56.0,30.02,ENE,58,3.0,-999.0,76,-99.99,,,-99.99,,2013-03-20 16:12:00,
2013-03-20 06:22:00,64.0,56.0,30.02,ENE,58,3.0,-999.0,76,-99.99,,,-99.99,,2013-03-20 16:22:00,
2013-03-20 06:32:00,63.0,56.0,30.04,ENE,58,2.0,-999.0,77,-99.99,,,-99.99,,2013-03-20 16:32:00,
2013-03-20 06:42:00,63.0,56.0,30.04,ENE,58,2.0,-999.0,77,-99.99,,,-99.99,,2013-03-20 16:42:00,
2013-03-20 06:52:00,63.0,56.0,30.04,ENE,58,2.0,-999.0,77,-99.99,,,-99.99,,2013-03-20 16:52:00,
2013-03-20 07:02:00,63.0,56.0,30.04,ENE,58,2.0,-999.0,77,-99.99,,,-99.99,,2013-03-20 17:02:00,
2013-03-20 07:11:00,63.0,56.0,30.04,ENE,58,2.0,-999.0,77,-99.99,,,-99.99,,2013-03-20 17:11:00,
2013-03-20 07:21:00,65.0,56.0,30.05,ENE,57,3.0,-999.0,73,-99.99,,,-99.99,,2013-03-20 17:21:00,
2013-03-20 07:32:00,65.0,57.0,30.06,ENE,57,1.0,-999.0,75,-99.99,,,-99.99,,2013-03-20 17:32:00,
2013-03-20 07:42:00,65.0,57.0,30.06,ENE,57,1.0,-999.0,75,-99.99,,,-99.99,,2013-03-20 17:42:00,
2013-03-20 07:52:00,65.0,57.0,30.06,ENE,57,2.0,-999.0,75,-99.99,,,-99.99,,2013-03-20 17:52:00,
2013-03-20 08:01:00,67.0,59.0,30.07,ENE,57,0.0,-999.0,75,-99.99,,,-99.99,,2013-03-20 18:01:00,
2013-03-20 08:12:00,67.0,59.0,30.07,ENE,57,0.0,-999.0,75,-99.99,,,-99.99,,2013-03-20 18:12:00,
2013-03-20 08:21:00,70.0,58.0,30.07,ENE,57,0.0,-999.0,65,-99.99,,,-99.99,,2013-03-20 18:21:00,
2013-03-20 08:32:00,72.0,57.0,30.08,East,95,0.0,-999.0,59,-99.99,,,-99.99,,2013-03-20 18:32:00,
2013-03-20 08:42:00,72.0,57.0,30.08,East,95,0.0,-999.0,59,-99.99,,,-99.99,,2013-03-20 18:42:00,
2013-03-20 08:52:00,73.0,59.0,30.09,SSW,205,2.0,-999.0,62,-99.99,,,-99.99,,2013-03-20 18:52:00,
2013-03-20 09:01:00,73.0,59.0,30.09,SSW,205,2.0,-999.0,62,-99.99,,,-99.99,,2013-03-20 19:01:00,
2013-03-20 09:11:00,73.0,59.0,30.09,SSW,205,2.0,-999.0,62,-99.99,,,-99.99,,2013-03-20 19:11:00,
2013-03-20 09:21:00,73.0,59.0,30.09,WSW,258,1.0,-999.0,62,-99.99,,,-99.99,,2013-03-20 19:21:00,
2013-03-20 09:31:00,73.0,60.0,30.10,West,259,2.0,-999.0,63,-99.99,,,-99.99,,2013-03-20 19:31:00,
2013-03-20 09:42:00,73.0,60.0,30.10,West,259,2.0,-999.0,63,-99.99,,,-99.99,,2013-03-20 19:42:00,
2013-03-20 09:53:00,73.0,61.0,30.10,SSE,158,3.0,-999.0,66,-99.99,,,-99.99,,2013-03-20 19:53:00,
2013-03-20 10:01:00,74.0,61.0,30.10,SSW,198,4.0,-999.0,64,-99.99,,,-99.99,,2013-03-20 20:01:00,
2013-03-20 10:12:00,74.0,61.0,30.10,SSW,198,4.0,-999.0,64,-99.99,,,-99.99,,2013-03-20 20:12:00,
2013-03-20 10:21:00,74.0,63.0,30.10,SSE,164,4.0,-999.0,69,-99.99,,,-99.99,,2013-03-20 20:21:00,
2013-03-20 10:31:00,74.0,63.0,30.10,SSE,164,4.0,-999.0,69,-99.99,,,-99.99,,2013-03-20 20:31:00,
2013-03-20 10:42:00,74.0,63.0,30.10,SSE,164,4.0,-999.0,69,-99.99,,,-99.99,,2013-03-20 20:42:00,
2013-03-20 10:52:00,74.0,67.0,30.10,SSW,196,5.0,-999.0,78,-99.99,,,-99.99,,2013-03-20 20:52:00,
2013-03-20 11:01:00,74.0,67.0,30.10,SSW,196,5.0,-999.0,78,-99.99,,,-99.99,,2013-03-20 21:01:00,
2013-03-20 11:12:00,74.0,67.0,30.10,SSW,196,5.0,-999.0,78,-99.99,,,-99.99,,2013-03-20 21:12:00,
2013-03-20 11:22:00,71.0,67.0,30.10,SSW,193,5.0,-999.0,87,-99.99,,,-99.99,,2013-03-20 21:22:00,
2013-03-20 11:32:00,70.0,67.0,30.10,SSW,207,4.0,-999.0,90,-99.99,,,-99.99,,2013-03-20 21:32:00,
2013-03-20 11:42:00,70.0,67.0,30.10,SSW,207,4.0,-999.0,90,-99.99,,,-99.99,,2013-03-20 21:42:00,
2013-03-20 11:52:00,69.0,67.0,30.09,SSW,194,3.0,-999.0,93,-99.99,,,-99.99,,2013-03-20 21:52:00,
2013-03-20 12:02:00,68.0,67.0,30.09,South,169,4.0,-999.0,95,-99.99,,,-99.99,,2013-03-20 22:02:00,
2013-03-20 12:12:00,68.0,67.0,30.09,South,169,4.0,-999.0,95,-99.99,,,-99.99,,2013-03-20 22:12:00,
2013-03-20 12:22:00,67.0,66.0,30.09,South,189,3.0,-999.0,96,-99.99,,,-99.99,,2013-03-20 22:22:00,
2013-03-20 12:32:00,67.0,66.0,30.09,SSW,194,3.0,-999.0,97,-99.99,,,-99.99,,2013-03-20 22:32:00,
2013-03-20 12:42:00,67.0,66.0,30.09,SSW,194,3.0,-999.0,97,-99.99,,,-99.99,,2013-03-20 22:42:00,
2013-03-20 12:52:00,67.0,66.0,30.09,SSW,201,3.0,-999.0,97,-99.99,,,-99.99,,2013-03-20 22:52:00,
2013-03-20 13:02:00,67.0,66.0,30.09,South,183,2.0,-999.0,97,-99.99,,,-99.99,,2013-03-20 23:02:00,
2013-03-20 13:12:00,67.0,66.0,30.09,South,183,2.0,-999.0,97,-99.99,,,-99.99,,2013-03-20 23:12:00,
2013-03-20 13:22:00,66.0,65.0,30.08,South,177,3.0,-999.0,96,-99.99,,,-99.99,,2013-03-20 23:22:00,
2013-03-20 13:32:00,66.0,65.0,30.08,South,177,3.0,-999.0,96,-99.99,,,-99.99,,2013-03-20 23:32:00,
2013-03-20 13:43:00,66.0,65.0,30.08,South,177,3.0,-999.0,96,-99.99,,,-99.99,,2013-03-20 23:43:00,
2013-03-20 13:52:00,65.0,64.0,30.08,South,188,4.0,-999.0,96,-99.99,,,-99.99,,2013-03-20 23:52:00,
2013-03-20 14:01:00,65.0,64.0,30.06,East,84,2.0,-999.0,97,-99.99,,,-99.99,,2013-03-21 00:01:00,
2013-03-20 14:12:00,65.0,64.0,30.06,East,84,2.0,-999.0,97,-99.99,,,-99.99,,2013-03-21 00:12:00,
2013-03-20 14:22:00,66.0,65.0,30.06,ESE,114,1.0,-999.0,96,-99.99,,,-99.99,,2013-03-21 00:22:00,
2013-03-20 14:32:00,66.0,65.0,30.05,SSE,151,0.0,-999.0,95,-99.99,,,-99.99,,2013-03-21 00:32:00,
2013-03-20 14:42:00,66.0,65.0,30.05,SSE,151,0.0,-999.0,95,-99.99,,,-99.99,,2013-03-21 00:42:00,
2013-03-20 14:52:00,67.0,66.0,30.05,East,95,2.0,-999.0,95,-99.99,,,-99.99,,2013-03-21 00:52:00,
2013-03-20 15:02:00,67.0,66.0,30.04,ESE,103,0.0,-999.0,95,-99.99,,,-99.99,,2013-03-21 01:02:00,
2013-03-20 15:11:00,67.0,66.0,30.04,ESE,103,0.0,-999.0,95,-99.99,,,-99.99,,2013-03-21 01:11:00,
2013-03-20 15:21:00,68.0,66.0,30.04,ESE,103,0.0,-999.0,94,-99.99,,,-99.99,,2013-03-21 01:21:00,
2013-03-20 15:32:00,68.0,66.0,30.03,ESE,108,0.0,-999.0,94,-99.99,,,-99.99,,2013-03-21 01:32:00,
2013-03-20 15:42:00,68.0,66.0,30.03,ESE,108,0.0,-999.0,94,-99.99,,,-99.99,,2013-03-21 01:42:00,
2013-03-20 15:52:00,68.0,65.0,30.03,ESE,107,1.0,-999.0,91,-99.99,,,-99.99,,2013-03-21 01:52:00,
2013-03-20 16:02:00,69.0,66.0,30.03,ESE,107,1.0,-999.0,90,-99.99,,,-99.99,,2013-03-21 02:02:00,
2013-03-20 16:12:00,69.0,66.0,30.03,ESE,107,1.0,-999.0,90,-99.99,,,-99.99,,2013-03-21 02:12:00,
2013-03-20 16:22:00,69.0,65.0,30.03,South,169,1.0,-999.0,88,-99.99,,,-99.99,,2013-03-21 02:22:00,
2013-03-20 16:32:00,69.0,65.0,30.04,SSE,168,0.0,-999.0,88,-99.99,,,-99.99,,2013-03-21 02:32:00,
2013-03-20 16:42:00,69.0,65.0,30.04,SSE,168,0.0,-999.0,88,-99.99,,,-99.99,,2013-03-21 02:42:00,
2013-03-20 16:51:00,69.0,65.0,30.04,SSE,168,0.0,-999.0,88,-99.99,,,-99.99,,2013-03-21 02:51:00,
2013-03-20 17:02:00,69.0,66.0,30.04,ENE,69,2.0,-999.0,90,-99.99,,,-99.99,,2013-03-21 03:02:00,
2013-03-20 17:12:00,69.0,66.0,30.04,ENE,69,2.0,-999.0,90,-99.99,,,-99.99,,2013-03-21 03:12:00,
2013-03-20 17:21:00,70.0,66.0,30.04,East,101,3.0,-999.0,87,-99.99,,,-99.99,,2013-03-21 03:21:00,
2013-03-20 17:32:00,70.0,66.0,30.04,ESE,117,1.0,-999.0,86,-99.99,,,-99.99,,2013-03-21 03:32:00,
2013-03-20 17:43:00,70.0,66.0,30.04,ESE,117,1.0,-999.0,86,-99.99,,,-99.99,,2013-03-21 03:43:00,
2013-03-20 17:52:00,71.0,66.0,30.04,ESE,117,0.0,-999.0,85,-99.99,,,-99.99,,2013-03-21 03:52:00,
2013-03-20 18:02:00,71.0,67.0,30.05,ESE,117,0.0,-999.0,86,-99.99,,,-99.99,,2013-03-21 04:02:00,
2013-03-20 18:12:00,71.0,67.0,30.05,ESE,117,0.0,-999.0,86,-99.99,,,-99.99,,2013-03-21 04:12:00,
2013-03-20 18:22:00,71.0,66.0,30.05,ESE,117,0.0,-999.0,84,-99.99,,,-99.99,,2013-03-21 04:22:00,
2013-03-20 18:32:00,71.0,66.0,30.06,ESE,119,0.0,-999.0,84,-99.99,,,-99.99,,2013-03-21 04:32:00,
2013-03-20 18:43:00,71.0,66.0,30.06,ESE,119,0.0,-999.0,84,-99.99,,,-99.99,,2013-03-21 04:43:00,
2013-03-20 18:52:00,71.0,66.0,30.07,ESE,119,0.0,-999.0,84,-99.99,,,-99.99,,2013-03-21 04:52:00,
2013-03-20 19:02:00,71.0,66.0,30.07,ESE,118,0.0,-999.0,85,-99.99,,,-99.99,,2013-03-21 05:02:00,
2013-03-20 19:12:00,71.0,66.0,30.07,ESE,118,0.0,-999.0,85,-99.99,,,-99.99,,2013-03-21 05:12:00,
2013-03-20 19:21:00,71.0,67.0,30.07,ESE,118,0.0,-999.0,87,-99.99,,,-99.99,,2013-03-21 05:21:00,
2013-03-20 19:32:00,70.0,66.0,30.07,ESE,118,0.0,-999.0,87,-99.99,,,-99.99,,2013-03-21 05:32:00,
2013-03-20 19:43:00,70.0,66.0,30.07,ESE,118,0.0,-999.0,87,-99.99,,,-99.99,,2013-03-21 05:43:00,
2013-03-20 19:51:00,69.0,65.0,30.08,ESE,118,0.0,-999.0,88,-99.99,,,-99.99,,2013-03-21 05:51:00,
2013-03-20 20:02:00,69.0,66.0,30.08,ESE,117,1.0,-999.0,89,-99.99,,,-99.99,,2013-03-21 06:02:00,
2013-03-20 20:12:00,69.0,66.0,30.08,ESE,117,1.0,-999.0,89,-99.99,,,-99.99,,2013-03-21 06:12:00,
2013-03-20 20:22:00,69.0,66.0,30.08,ESE,117,0.0,-999.0,89,-99.99,,,-99.99,,2013-03-21 06:22:00,
2013-03-20 20:32:00,68.0,65.0,30.09,East,96,1.0,-999.0,89,-99.99,,,-99.99,,2013-03-21 06:32:00,
2013-03-20 20:42:00,68.0,65.0,30.09,East,96,1.0,-999.0,89,-99.99,,,-99.99,,2013-03-21 06:42:00,
2013-03-20 20:51:00,68.0,64.0,30.09,ENE,73,2.0,-999.0,88,-99.99,,,-99.99,,2013-03-21 06:51:00,
2013-03-20 21:02:00,68.0,64.0,30.09,NE,54,2.0,-999.0,88,-99.99,,,-99.99,,2013-03-21 07:02:00,
2013-03-20 21:12:00,68.0,64.0,30.09,NE,54,2.0,-999.0,88,-99.99,,,-99.99,,2013-03-21 07:12:00,
2013-03-20 21:21:00,68.0,64.0,30.10,NE,44,2.0,-999.0,88,-99.99,,,-99.99,,2013-03-21 07:21:00,
2013-03-20 21:32:00,68.0,64.0,30.10,NE,38,2.0,-999.0,86,-99.99,,,-99.99,,2013-03-21 07:32:00,
2013-03-20 21:42:00,68.0,64.0,30.10,NE,38,2.0,-999.0,86,-99.99,,,-99.99,,2013-03-21 07:42:00,
2013-03-20 21:52:00,68.0,63.0,30.10,NE,38,1.0,-999.0,85,-99.99,,,-99.99,,2013-03-21 07:52:00,
2013-03-20 22:01:00,69.0,64.0,30.11,NE,42,1.0,-999.0,83,-99.99,,,-99.99,,2013-03-21 08:01:00,
2013-03-20 22:12:00,69.0,63.0,30.11,NNE,19,1.0,-999.0,82,-99.99,,,-99.99,,2013-03-21 08:12:00,
2013-03-20 22:22:00,69.0,63.0,30.11,NNE,19,1.0,-999.0,82,-99.99,,,-99.99,,2013-03-21 08:22:00,
2013-03-20 22:33:00,68.0,63.0,30.11,NE,34,0.0,-999.0,84,-99.99,,,-99.99,,2013-03-21 08:33:00,
2013-03-20 22:42:00,68.0,63.0,30.11,NE,34,0.0,-999.0,84,-99.99,,,-99.99,,2013-03-21 08:42:00,
2013-03-20 22:51:00,68.0,64.0,30.10,NE,45,0.0,-999.0,86,-99.99,,,-99.99,,2013-03-21 08:51:00,
2013-03-20 23:02:00,68.0,63.0,30.09,ESE,110,1.0,-999.0,85,-99.99,,,-99.99,,2013-03-21 09:02:00,
2013-03-20 23:11:00,68.0,63.0,30.09,ESE,110,1.0,-999.0,85,-99.99,,,-99.99,,2013-03-21 09:11:00,
2013-03-20 23:21:00,68.0,63.0,30.10,East,93,2.0,-999.0,84,-99.99,,,-99.99,,2013-03-21 09:21:00,
2013-03-20 23:33:00,68.0,63.0,30.09,ESE,103,2.0,-999.0,83,-99.99,,,-99.99,,2013-03-21 09:33:00,
2013-03-20 23:43:00,68.0,63.0,30.09,ESE,103,2.0,-999.0,83,-99.99,,,-99.99,,2013-03-21 09:43:00,
2013-03-20 23:53:00,68.0,63.0,30.09,East,101,2.0,-999.0,83,-99.99,,,-99.99,,2013-03-21 09:53:00,